Location: ??????
(36.0418°N, 43.6351°E)
Time: 21:48:06
(UTC+00:00)

CENTAUR R/B - Pass Details

Date: 07 March 2021
Orbit: 742 x 1446 km, 63.4° (Epoch: 18 April)

Event Time Altitude Azimuth Distance (km) Brightness Sun altitude
Rises 01:45:49 0° 330° (NNW) 4,231 5.6 -21.4°
Reaches altitude 10° 01:48:34 10° 333° (NNW) 3,340 5.1 -20.8°
Maximum altitude 01:56:53 67° 56° (NE) 1,521 3.6 -19.1°
Drops below altitude 10° 02:05:45 10° 138° (SE) 3,551 5.9 -17.4°
Sets 02:08:44 0° 141° (SE) 4,511 6.4 -16.8°
